Time,TemperatureF,DewpointF,PressureIn,WindDirection,WindDirectionDegrees,WindSpeedMPH,WindSpeedGustMPH,Humidity,HourlyPrecipIn,Conditions,Clouds,dailyrainin,SoftwareType,DateUTC
2013-01-18 00:05:00,27.6,26.9,30.32,SW,236,0.0,0.0,97,0.00,,,0.00,Wunderground v.1.15,2013-01-18 08:05:00,
2013-01-18 00:11:00,27.5,26.8,30.32,SW,236,0.0,0.0,97,0.00,,,0.00,Wunderground v.1.15,2013-01-18 08:11:00,
2013-01-18 00:16:00,27.4,26.7,30.32,SW,236,0.0,0.0,97,0.00,,,0.00,Wunderground v.1.15,2013-01-18 08:16:00,
2013-01-18 00:21:00,27.3,26.6,30.32,SW,236,0.0,0.0,97,0.00,,,0.00,Wunderground v.1.15,2013-01-18 08:21:00,
2013-01-18 00:26:00,27.2,26.5,30.32,SW,236,0.0,0.0,97,0.00,,,0.00,Wunderground v.1.15,2013-01-18 08:26:00,
2013-01-18 00:31:00,27.1,26.4,30.32,SW,236,0.0,0.0,97,0.00,,,0.00,Wunderground v.1.15,2013-01-18 08:31:00,
2013-01-18 00:36:00,27.1,26.4,30.32,SW,236,0.0,0.0,97,0.00,,,0.00,Wunderground v.1.15,2013-01-18 08:36:00,
2013-01-18 00:42:00,27.1,26.4,30.32,SW,236,0.0,0.0,97,0.00,,,0.00,Wunderground v.1.15,2013-01-18 08:42:00,
2013-01-18 00:47:00,27.0,26.3,30.31,SW,236,0.0,0.0,97,0.00,,,0.00,Wunderground v.1.15,2013-01-18 08:47:00,
2013-01-18 00:52:00,27.0,26.3,30.32,SW,236,0.0,0.0,97,0.00,,,0.00,Wunderground v.1.15,2013-01-18 08:52:00,
2013-01-18 00:57:00,27.0,26.3,30.32,SW,236,0.0,0.0,97,0.00,,,0.00,Wunderground v.1.15,2013-01-18 08:57:00,
2013-01-18 01:03:00,26.9,26.2,30.32,SW,236,0.0,0.0,97,0.00,,,0.00,Wunderground v.1.15,2013-01-18 09:03:00,
2013-01-18 01:08:00,26.8,26.1,30.32,SW,236,0.0,0.0,97,0.00,,,0.00,Wunderground v.1.15,2013-01-18 09:08:00,
2013-01-18 01:13:00,26.7,26.0,30.32,SW,236,0.0,0.0,97,0.00,,,0.00,Wunderground v.1.15,2013-01-18 09:13:00,
2013-01-18 01:18:00,26.8,26.1,30.32,SW,236,0.0,2.0,97,0.00,,,0.00,Wunderground v.1.15,2013-01-18 09:18:00,
2013-01-18 01:24:00,26.7,26.0,30.32,SW,236,0.0,0.0,97,0.00,,,0.00,Wunderground v.1.15,2013-01-18 09:24:00,
2013-01-18 01:29:00,26.7,26.0,30.32,SW,236,0.0,1.0,97,0.00,,,0.00,Wunderground v.1.15,2013-01-18 09:29:00,
2013-01-18 01:35:00,26.6,25.9,30.31,SW,236,0.0,0.0,97,0.00,,,0.00,Wunderground v.1.15,2013-01-18 09:35:00,
2013-01-18 01:41:00,26.6,25.9,30.32,SW,236,0.0,0.0,97,0.00,,,0.00,Wunderground v.1.15,2013-01-18 09:41:00,
2013-01-18 01:46:00,26.5,25.8,30.31,SW,236,0.0,0.0,97,0.00,,,0.00,Wunderground v.1.15,2013-01-18 09:46:00,
2013-01-18 01:51:00,26.4,25.7,30.31,SW,236,0.0,0.0,97,0.00,,,0.00,Wunderground v.1.15,2013-01-18 09:51:00,
2013-01-18 01:56:00,26.3,25.6,30.31,SW,236,0.0,1.0,97,0.00,,,0.00,Wunderground v.1.15,2013-01-18 09:56:00,
2013-01-18 02:01:00,26.3,25.6,30.31,SW,236,0.0,0.0,97,0.00,,,0.00,Wunderground v.1.15,2013-01-18 10:01:00,
2013-01-18 02:07:00,26.2,25.5,30.31,SW,236,0.0,0.0,97,0.00,,,0.00,Wunderground v.1.15,2013-01-18 10:07:00,
2013-01-18 02:12:00,26.1,25.4,30.31,SW,236,0.0,0.0,97,0.00,,,0.00,Wunderground v.1.15,2013-01-18 10:12:00,
2013-01-18 02:17:00,26.1,25.4,30.31,SW,236,0.0,0.0,97,0.00,,,0.00,Wunderground v.1.15,2013-01-18 10:17:00,
2013-01-18 02:22:00,26.0,25.3,30.31,SW,236,0.0,0.0,97,0.00,,,0.00,Wunderground v.1.15,2013-01-18 10:22:00,
2013-01-18 02:28:00,26.0,25.3,30.31,SW,236,0.0,0.0,97,0.00,,,0.00,Wunderground v.1.15,2013-01-18 10:28:00,
2013-01-18 02:33:00,25.9,25.2,30.31,SW,236,0.0,0.0,97,0.00,,,0.00,Wunderground v.1.15,2013-01-18 10:33:00,
2013-01-18 02:38:00,25.9,25.2,30.31,SW,236,0.0,0.0,97,0.00,,,0.00,Wunderground v.1.15,2013-01-18 10:38:00,
2013-01-18 02:43:00,26.0,25.3,30.31,SW,236,0.0,1.0,97,0.00,,,0.00,Wunderground v.1.15,2013-01-18 10:43:00,
2013-01-18 02:49:00,26.0,25.3,30.31,SW,236,0.0,1.0,97,0.00,,,0.00,Wunderground v.1.15,2013-01-18 10:49:00,
2013-01-18 02:54:00,26.1,25.4,30.31,SW,236,0.0,2.0,97,0.00,,,0.00,Wunderground v.1.15,2013-01-18 10:54:00,
2013-01-18 02:59:00,26.1,25.4,30.31,SW,236,1.0,2.0,97,0.00,,,0.00,Wunderground v.1.15,2013-01-18 10:59:00,
2013-01-18 03:05:00,26.1,25.4,30.31,SW,236,0.0,2.0,97,0.00,,,0.00,Wunderground v.1.15,2013-01-18 11:05:00,
2013-01-18 03:11:00,26.0,25.3,30.31,SW,236,0.0,0.0,97,0.00,,,0.00,Wunderground v.1.15,2013-01-18 11:11:00,
2013-01-18 03:16:00,25.9,25.2,30.31,SW,236,0.0,0.0,97,0.00,,,0.00,Wunderground v.1.15,2013-01-18 11:16:00,
2013-01-18 03:21:00,25.9,25.2,30.31,SW,236,0.0,0.0,97,0.00,,,0.00,Wunderground v.1.15,2013-01-18 11:21:00,
2013-01-18 03:26:00,25.8,25.1,30.31,SW,236,0.0,2.0,97,0.00,,,0.00,Wunderground v.1.15,2013-01-18 11:26:00,
2013-01-18 03:32:00,25.7,25.0,30.31,SW,236,0.0,0.0,97,0.00,,,0.00,Wunderground v.1.15,2013-01-18 11:32:00,
2013-01-18 03:37:00,25.7,25.0,30.30,SW,236,0.0,0.0,97,0.00,,,0.00,Wunderground v.1.15,2013-01-18 11:37:00,
2013-01-18 03:42:00,25.7,25.0,30.31,SW,236,0.0,0.0,97,0.00,,,0.00,Wunderground v.1.15,2013-01-18 11:42:00,
2013-01-18 03:48:00,25.7,25.0,30.31,SW,236,0.0,0.0,97,0.00,,,0.00,Wunderground v.1.15,2013-01-18 11:48:00,
2013-01-18 03:53:00,25.8,25.1,30.30,SW,236,0.0,0.0,97,0.00,,,0.00,Wunderground v.1.15,2013-01-18 11:53:00,
2013-01-18 03:58:00,26.0,25.3,30.30,SW,236,1.0,2.0,97,0.00,,,0.00,Wunderground v.1.15,2013-01-18 11:58:00,
2013-01-18 04:03:00,26.0,25.3,30.30,SW,236,1.0,1.0,97,0.00,,,0.00,Wunderground v.1.15,2013-01-18 12:03:00,
2013-01-18 04:09:00,26.0,25.3,30.30,SW,236,0.0,1.0,97,0.00,,,0.00,Wunderground v.1.15,2013-01-18 12:09:00,
2013-01-18 04:15:00,26.0,25.3,30.30,SW,236,0.0,1.0,97,0.00,,,0.00,Wunderground v.1.15,2013-01-18 12:15:00,
2013-01-18 04:21:00,26.0,25.3,30.30,SW,236,0.0,0.0,97,0.00,,,0.00,Wunderground v.1.15,2013-01-18 12:21:00,
2013-01-18 04:26:00,25.9,25.2,30.29,SW,236,0.0,1.0,97,0.00,,,0.00,Wunderground v.1.15,2013-01-18 12:26:00,
2013-01-18 04:31:00,26.0,25.3,30.29,SW,236,0.0,0.0,97,0.00,,,0.00,Wunderground v.1.15,2013-01-18 12:31:00,
2013-01-18 04:36:00,26.1,25.4,30.29,SW,236,0.0,0.0,97,0.00,,,0.00,Wunderground v.1.15,2013-01-18 12:36:00,
2013-01-18 04:42:00,26.1,25.4,30.29,SW,236,0.0,0.0,97,0.00,,,0.00,Wunderground v.1.15,2013-01-18 12:42:00,
2013-01-18 04:47:00,26.2,25.5,30.29,SW,236,0.0,0.0,97,0.00,,,0.00,Wunderground v.1.15,2013-01-18 12:47:00,
2013-01-18 04:52:00,26.2,25.5,30.29,SW,236,0.0,0.0,97,0.00,,,0.00,Wunderground v.1.15,2013-01-18 12:52:00,
2013-01-18 04:58:00,26.2,25.5,30.29,SW,236,1.0,3.0,97,0.00,,,0.00,Wunderground v.1.15,2013-01-18 12:58:00,
2013-01-18 05:03:00,26.2,25.5,30.29,SW,236,2.0,3.0,97,0.00,,,0.00,Wunderground v.1.15,2013-01-18 13:03:00,
2013-01-18 05:08:00,26.1,25.4,30.28,SW,236,2.0,3.0,97,0.00,,,0.00,Wunderground v.1.15,2013-01-18 13:08:00,
2013-01-18 05:13:00,26.1,25.4,30.28,SW,236,1.0,1.0,97,0.00,,,0.00,Wunderground v.1.15,2013-01-18 13:13:00,
2013-01-18 05:18:00,26.1,25.4,30.28,SW,236,0.0,1.0,97,0.00,,,0.00,Wunderground v.1.15,2013-01-18 13:18:00,
2013-01-18 05:24:00,26.0,25.3,30.28,SW,236,0.0,0.0,97,0.00,,,0.00,Wunderground v.1.15,2013-01-18 13:24:00,
2013-01-18 05:29:00,26.0,25.3,30.28,SW,236,0.0,0.0,97,0.00,,,0.00,Wunderground v.1.15,2013-01-18 13:29:00,
2013-01-18 05:34:00,25.9,25.2,30.29,SW,236,0.0,0.0,97,0.00,,,0.00,Wunderground v.1.15,2013-01-18 13:34:00,
2013-01-18 05:40:00,25.8,25.1,30.29,SW,236,0.0,0.0,97,0.00,,,0.00,Wunderground v.1.15,2013-01-18 13:40:00,
2013-01-18 05:46:00,25.7,25.0,30.29,SW,215,1.0,3.0,97,0.00,,,0.00,Wunderground v.1.15,2013-01-18 13:46:00,
2013-01-18 05:51:00,25.7,25.0,30.29,SW,215,1.0,2.0,97,0.00,,,0.00,Wunderground v.1.15,2013-01-18 13:51:00,
2013-01-18 05:56:00,25.7,25.0,30.29,SW,216,1.0,2.0,97,0.00,,,0.00,Wunderground v.1.15,2013-01-18 13:56:00,
2013-01-18 06:01:00,25.8,25.1,30.29,SW,215,0.0,0.0,97,0.00,,,0.00,Wunderground v.1.15,2013-01-18 14:01:00,
2013-01-18 06:07:00,25.8,25.1,30.29,SW,216,0.0,0.0,97,0.00,,,0.00,Wunderground v.1.15,2013-01-18 14:07:00,
2013-01-18 06:12:00,25.9,25.2,30.29,SW,216,0.0,0.0,97,0.00,,,0.00,Wunderground v.1.15,2013-01-18 14:12:00,
2013-01-18 06:17:00,26.0,25.3,30.29,SW,215,0.0,0.0,97,0.00,,,0.00,Wunderground v.1.15,2013-01-18 14:17:00,
2013-01-18 06:22:00,26.1,25.4,30.29,SW,215,0.0,0.0,97,0.00,,,0.00,Wunderground v.1.15,2013-01-18 14:22:00,
2013-01-18 06:27:00,26.1,25.4,30.29,SW,216,0.0,0.0,97,0.00,,,0.00,Wunderground v.1.15,2013-01-18 14:27:00,
2013-01-18 06:33:00,26.2,25.5,30.29,SW,215,0.0,0.0,97,0.00,,,0.00,Wunderground v.1.15,2013-01-18 14:33:00,
2013-01-18 06:38:00,26.3,25.6,30.30,SW,216,0.0,0.0,97,0.00,,,0.00,Wunderground v.1.15,2013-01-18 14:38:00,
2013-01-18 06:44:00,26.3,25.6,30.30,SW,215,0.0,0.0,97,0.00,,,0.00,Wunderground v.1.15,2013-01-18 14:44:00,
2013-01-18 06:50:00,26.5,25.8,30.29,SW,216,0.0,0.0,97,0.00,,,0.00,Wunderground v.1.15,2013-01-18 14:50:00,
2013-01-18 06:56:00,26.6,25.9,30.29,SW,216,0.0,0.0,97,0.00,,,0.00,Wunderground v.1.15,2013-01-18 14:56:00,
2013-01-18 07:01:00,26.6,26.1,30.29,SW,216,0.0,0.0,98,0.00,,,0.00,Wunderground v.1.15,2013-01-18 15:01:00,
2013-01-18 07:06:00,26.7,26.2,30.29,SW,215,0.0,1.0,98,0.00,,,0.00,Wunderground v.1.15,2013-01-18 15:06:00,
2013-01-18 07:11:00,26.6,26.1,30.29,SW,214,1.0,1.0,98,0.00,,,0.00,Wunderground v.1.15,2013-01-18 15:11:00,
2013-01-18 07:17:00,26.6,25.9,30.29,SW,214,1.0,1.0,97,0.00,,,0.00,Wunderground v.1.15,2013-01-18 15:17:00,
2013-01-18 07:22:00,26.5,25.8,30.29,SW,214,0.0,0.0,97,0.00,,,0.00,Wunderground v.1.15,2013-01-18 15:22:00,
2013-01-18 07:28:00,26.5,25.8,30.29,SW,214,0.0,0.0,97,0.00,,,0.00,Wunderground v.1.15,2013-01-18 15:28:00,
2013-01-18 07:33:00,26.3,25.6,30.29,SW,214,0.0,0.0,97,0.00,,,0.00,Wunderground v.1.15,2013-01-18 15:33:00,
2013-01-18 07:38:00,26.2,25.5,30.29,SW,214,0.0,0.0,97,0.00,,,0.00,Wunderground v.1.15,2013-01-18 15:38:00,
2013-01-18 07:43:00,26.0,25.3,30.29,SW,214,0.0,0.0,97,0.00,,,0.00,Wunderground v.1.15,2013-01-18 15:43:00,
2013-01-18 07:49:00,25.9,25.2,30.29,SW,214,0.0,0.0,97,0.00,,,0.00,Wunderground v.1.15,2013-01-18 15:49:00,
2013-01-18 07:54:00,25.8,25.1,30.29,SW,214,0.0,0.0,97,0.00,,,0.00,Wunderground v.1.15,2013-01-18 15:54:00,
2013-01-18 07:59:00,25.6,24.9,30.29,SW,214,0.0,0.0,97,0.00,,,0.00,Wunderground v.1.15,2013-01-18 15:59:00,
2013-01-18 08:04:00,25.5,24.8,30.29,SW,214,0.0,0.0,97,0.00,,,0.00,Wunderground v.1.15,2013-01-18 16:04:00,
2013-01-18 08:10:00,25.5,24.8,30.29,SW,214,0.0,0.0,97,0.00,,,0.00,Wunderground v.1.15,2013-01-18 16:10:00,
2013-01-18 08:16:00,25.4,24.7,30.30,SW,214,0.0,0.0,97,0.00,,,0.00,Wunderground v.1.15,2013-01-18 16:16:00,
2013-01-18 08:21:00,25.4,24.7,30.30,SW,214,0.0,0.0,97,0.00,,,0.00,Wunderground v.1.15,2013-01-18 16:21:00,
2013-01-18 08:26:00,25.4,24.7,30.30,SW,214,0.0,0.0,97,0.00,,,0.00,Wunderground v.1.15,2013-01-18 16:26:00,
2013-01-18 08:31:00,25.4,24.7,30.30,SW,214,0.0,0.0,97,0.00,,,0.00,Wunderground v.1.15,2013-01-18 16:31:00,
2013-01-18 08:37:00,25.3,24.6,30.30,SW,214,0.0,0.0,97,0.00,,,0.00,Wunderground v.1.15,2013-01-18 16:37:00,
2013-01-18 08:42:00,25.2,24.5,30.30,SW,214,0.0,0.0,97,0.00,,,0.00,Wunderground v.1.15,2013-01-18 16:42:00,
2013-01-18 08:47:00,25.2,24.5,30.31,SW,214,0.0,0.0,97,0.00,,,0.00,Wunderground v.1.15,2013-01-18 16:47:00,
2013-01-18 08:53:00,25.2,24.5,30.31,SW,214,0.0,0.0,97,0.00,,,0.00,Wunderground v.1.15,2013-01-18 16:53:00,
2013-01-18 08:59:00,25.3,24.6,30.31,SW,214,0.0,0.0,97,0.00,,,0.00,Wunderground v.1.15,2013-01-18 16:59:00,
2013-01-18 09:04:00,25.4,24.7,30.31,SW,214,0.0,0.0,97,0.00,,,0.00,Wunderground v.1.15,2013-01-18 17:04:00,
2013-01-18 09:10:00,25.5,24.8,30.31,SW,214,0.0,0.0,97,0.00,,,0.00,Wunderground v.1.15,2013-01-18 17:10:00,
2013-01-18 09:16:00,25.5,24.8,30.32,SW,214,0.0,0.0,97,0.00,,,0.00,Wunderground v.1.15,2013-01-18 17:16:00,
2013-01-18 09:21:00,25.6,24.9,30.32,SW,214,0.0,0.0,97,0.00,,,0.00,Wunderground v.1.15,2013-01-18 17:21:00,
2013-01-18 09:26:00,25.7,25.0,30.33,SW,214,0.0,0.0,97,0.00,,,0.00,Wunderground v.1.15,2013-01-18 17:26:00,
2013-01-18 09:31:00,26.0,25.3,30.33,SW,214,0.0,0.0,97,0.00,,,0.00,Wunderground v.1.15,2013-01-18 17:31:00,
2013-01-18 09:37:00,26.4,25.7,30.33,SW,214,0.0,0.0,97,0.00,,,0.00,Wunderground v.1.15,2013-01-18 17:37:00,
2013-01-18 09:43:00,27.0,26.5,30.33,SW,214,0.0,0.0,98,0.00,,,0.00,Wunderground v.1.15,2013-01-18 17:43:00,
2013-01-18 09:48:00,27.4,26.9,30.33,SW,214,0.0,0.0,98,0.00,,,0.00,Wunderground v.1.15,2013-01-18 17:48:00,
2013-01-18 09:53:00,27.8,27.3,30.34,SW,214,0.0,0.0,98,0.00,,,0.00,Wunderground v.1.15,2013-01-18 17:53:00,
2013-01-18 09:58:00,28.3,27.8,30.33,SW,214,0.0,0.0,98,0.00,,,0.00,Wunderground v.1.15,2013-01-18 17:58:00,
2013-01-18 10:04:00,28.7,28.2,30.33,SW,214,0.0,0.0,98,0.00,,,0.00,Wunderground v.1.15,2013-01-18 18:04:00,
2013-01-18 10:09:00,29.2,28.7,30.33,SW,214,0.0,0.0,98,0.00,,,0.00,Wunderground v.1.15,2013-01-18 18:09:00,
2013-01-18 10:14:00,29.5,29.0,30.33,SW,214,0.0,0.0,98,0.00,,,0.00,Wunderground v.1.15,2013-01-18 18:14:00,
2013-01-18 10:19:00,29.8,29.3,30.33,SW,214,0.0,0.0,98,0.00,,,0.00,Wunderground v.1.15,2013-01-18 18:19:00,
2013-01-18 10:25:00,30.1,29.6,30.33,SW,214,0.0,0.0,98,0.00,,,0.00,Wunderground v.1.15,2013-01-18 18:25:00,
2013-01-18 10:31:00,30.4,29.9,30.33,SW,214,0.0,0.0,98,0.00,,,0.00,Wunderground v.1.15,2013-01-18 18:31:00,
2013-01-18 10:36:00,30.6,30.1,30.33,SW,214,0.0,0.0,98,0.00,,,0.00,Wunderground v.1.15,2013-01-18 18:36:00,
2013-01-18 10:42:00,30.6,30.1,30.33,SW,214,0.0,0.0,98,0.00,,,0.00,Wunderground v.1.15,2013-01-18 18:42:00,
2013-01-18 10:47:00,30.8,30.3,30.33,SW,214,0.0,0.0,98,0.00,,,0.00,Wunderground v.1.15,2013-01-18 18:47:00,
2013-01-18 10:52:00,31.0,30.5,30.33,SW,214,0.0,0.0,98,0.00,,,0.00,Wunderground v.1.15,2013-01-18 18:52:00,
2013-01-18 10:57:00,31.1,30.6,30.33,SW,214,0.0,0.0,98,0.00,,,0.01,Wunderground v.1.15,2013-01-18 18:57:00,
2013-01-18 11:03:00,31.2,30.7,30.33,SW,214,0.0,0.0,98,0.00,,,0.01,Wunderground v.1.15,2013-01-18 19:03:00,
2013-01-18 11:08:00,31.3,30.8,30.33,SW,214,0.0,1.0,98,0.00,,,0.01,Wunderground v.1.15,2013-01-18 19:08:00,
2013-01-18 11:13:00,31.4,30.9,30.32,SW,214,0.0,0.0,98,0.00,,,0.01,Wunderground v.1.15,2013-01-18 19:13:00,
2013-01-18 11:19:00,31.4,30.9,30.32,SW,214,0.0,1.0,98,0.00,,,0.01,Wunderground v.1.15,2013-01-18 19:19:00,
2013-01-18 11:24:00,31.5,31.0,30.32,SW,214,0.0,1.0,98,0.00,,,0.01,Wunderground v.1.15,2013-01-18 19:24:00,
2013-01-18 11:29:00,31.6,31.1,30.32,SW,214,0.0,3.0,98,0.00,,,0.01,Wunderground v.1.15,2013-01-18 19:29:00,
2013-01-18 11:35:00,31.8,31.3,30.32,SW,214,0.0,0.0,98,0.00,,,0.01,Wunderground v.1.15,2013-01-18 19:35:00,
2013-01-18 11:41:00,31.9,31.4,30.32,SW,214,0.0,1.0,98,0.00,,,0.01,Wunderground v.1.15,2013-01-18 19:41:00,
2013-01-18 11:46:00,32.0,31.5,30.32,SW,217,1.0,3.0,98,0.00,,,0.01,Wunderground v.1.15,2013-01-18 19:46:00,
2013-01-18 11:51:00,32.2,31.7,30.32,SW,217,1.0,1.0,98,0.00,,,0.01,Wunderground v.1.15,2013-01-18 19:51:00,
2013-01-18 11:56:00,32.4,31.9,30.31,SW,217,1.0,3.0,98,0.00,,,0.01,Wunderground v.1.15,2013-01-18 19:56:00,
2013-01-18 12:02:00,32.6,32.1,30.32,SW,217,1.0,1.0,98,0.00,,,0.01,Wunderground v.1.15,2013-01-18 20:02:00,
2013-01-18 12:07:00,32.9,32.4,30.32,SW,217,1.0,1.0,98,0.00,,,0.01,Wunderground v.1.15,2013-01-18 20:07:00,
2013-01-18 12:12:00,33.1,32.6,30.32,SW,217,1.0,1.0,98,0.00,,,0.01,Wunderground v.1.15,2013-01-18 20:12:00,
2013-01-18 12:17:00,33.3,32.8,30.32,SW,217,1.0,3.0,98,0.00,,,0.01,Wunderground v.1.15,2013-01-18 20:17:00,
2013-01-18 12:23:00,33.3,32.8,30.32,SW,217,1.0,1.0,98,0.00,,,0.01,Wunderground v.1.15,2013-01-18 20:23:00,
2013-01-18 12:28:00,33.5,33.0,30.32,SW,232,1.0,2.0,98,0.00,,,0.01,Wunderground v.1.15,2013-01-18 20:28:00,
2013-01-18 12:34:00,33.5,33.0,30.32,SW,232,1.0,3.0,98,0.00,,,0.01,Wunderground v.1.15,2013-01-18 20:34:00,
2013-01-18 12:40:00,33.5,33.0,30.33,SW,232,1.0,3.0,98,0.00,,,0.01,Wunderground v.1.15,2013-01-18 20:40:00,
2013-01-18 12:46:00,33.3,32.8,30.33,SW,232,0.0,2.0,98,0.00,,,0.01,Wunderground v.1.15,2013-01-18 20:46:00,
2013-01-18 12:51:00,33.4,32.9,30.33,SW,232,0.0,1.0,98,0.00,,,0.01,Wunderground v.1.15,2013-01-18 20:51:00,
2013-01-18 12:56:00,33.4,32.9,30.33,SW,232,1.0,2.0,98,0.00,,,0.01,Wunderground v.1.15,2013-01-18 20:56:00,
2013-01-18 13:01:00,33.5,33.0,30.33,SW,232,1.0,1.0,98,0.00,,,0.01,Wunderground v.1.15,2013-01-18 21:01:00,
2013-01-18 13:07:00,33.5,33.0,30.32,SW,232,1.0,2.0,98,0.00,,,0.01,Wunderground v.1.15,2013-01-18 21:07:00,
2013-01-18 13:12:00,33.5,33.0,30.32,SW,232,1.0,1.0,98,0.00,,,0.01,Wunderground v.1.15,2013-01-18 21:12:00,
2013-01-18 13:17:00,33.5,33.0,30.32,SW,232,0.0,1.0,98,0.00,,,0.01,Wunderground v.1.15,2013-01-18 21:17:00,
2013-01-18 13:23:00,33.5,33.0,30.32,SW,232,0.0,0.0,98,0.00,,,0.01,Wunderground v.1.15,2013-01-18 21:23:00,
2013-01-18 13:28:00,33.6,33.1,30.32,SW,232,0.0,0.0,98,0.00,,,0.01,Wunderground v.1.15,2013-01-18 21:28:00,
2013-01-18 13:33:00,33.7,33.2,30.32,SW,232,0.0,0.0,98,0.00,,,0.01,Wunderground v.1.15,2013-01-18 21:33:00,
2013-01-18 13:39:00,33.8,33.3,30.32,SW,232,0.0,3.0,98,0.00,,,0.01,Wunderground v.1.15,2013-01-18 21:39:00,
2013-01-18 13:44:00,33.8,33.3,30.32,WNW,294,1.0,4.0,98,0.00,,,0.01,Wunderground v.1.15,2013-01-18 21:44:00,
2013-01-18 13:49:00,33.8,33.3,30.32,NW,307,1.0,4.0,98,0.00,,,0.01,Wunderground v.1.15,2013-01-18 21:49:00,
2013-01-18 13:54:00,33.8,33.3,30.32,NW,309,2.0,3.0,98,0.00,,,0.01,Wunderground v.1.15,2013-01-18 21:54:00,
2013-01-18 14:00:00,33.8,33.3,30.32,NW,309,1.0,3.0,98,0.00,,,0.01,Wunderground v.1.15,2013-01-18 22:00:00,
2013-01-18 14:05:00,33.9,33.4,30.33,NW,309,0.0,2.0,98,0.00,,,0.01,Wunderground v.1.15,2013-01-18 22:05:00,
2013-01-18 14:11:00,33.9,33.4,30.33,NW,310,0.0,0.0,98,0.00,,,0.01,Wunderground v.1.15,2013-01-18 22:11:00,
2013-01-18 14:16:00,33.9,33.4,30.32,NE,49,2.0,4.0,98,0.00,,,0.01,Wunderground v.1.15,2013-01-18 22:16:00,
2013-01-18 14:21:00,34.0,33.5,30.32,NW,323,2.0,2.0,98,0.00,,,0.01,Wunderground v.1.15,2013-01-18 22:21:00,
2013-01-18 14:26:00,34.0,33.5,30.33,NE,43,1.0,2.0,98,0.00,,,0.01,Wunderground v.1.15,2013-01-18 22:26:00,
2013-01-18 14:32:00,33.9,33.4,30.32,ENE,62,1.0,1.0,98,0.00,,,0.01,Wunderground v.1.15,2013-01-18 22:32:00,
2013-01-18 14:37:00,33.9,33.4,30.32,ENE,62,1.0,1.0,98,0.00,,,0.01,Wunderground v.1.15,2013-01-18 22:37:00,
2013-01-18 14:43:00,33.9,33.4,30.32,ENE,62,0.0,0.0,98,0.00,,,0.01,Wunderground v.1.15,2013-01-18 22:43:00,
2013-01-18 14:48:00,34.0,33.5,30.32,ENE,62,0.0,0.0,98,0.00,,,0.01,Wunderground v.1.15,2013-01-18 22:48:00,
2013-01-18 14:53:00,34.1,33.6,30.32,ENE,61,0.0,2.0,98,0.00,,,0.01,Wunderground v.1.15,2013-01-18 22:53:00,
2013-01-18 14:59:00,34.1,33.6,30.32,NE,51,1.0,3.0,98,0.00,,,0.01,Wunderground v.1.15,2013-01-18 22:59:00,
2013-01-18 15:04:00,34.2,33.7,30.32,NE,51,0.0,1.0,98,0.00,,,0.01,Wunderground v.1.15,2013-01-18 23:04:00,
2013-01-18 15:09:00,34.2,33.7,30.32,NE,50,0.0,2.0,98,0.00,,,0.01,Wunderground v.1.15,2013-01-18 23:09:00,
2013-01-18 15:14:00,34.2,33.7,30.32,NE,37,0.0,0.0,98,0.00,,,0.01,Wunderground v.1.15,2013-01-18 23:14:00,
2013-01-18 15:20:00,34.1,33.6,30.32,NE,37,0.0,0.0,98,0.00,,,0.01,Wunderground v.1.15,2013-01-18 23:20:00,
2013-01-18 15:26:00,34.1,33.6,30.32,NE,37,0.0,1.0,98,0.00,,,0.01,Wunderground v.1.15,2013-01-18 23:26:00,
2013-01-18 15:31:00,33.9,33.4,30.32,NE,37,0.0,0.0,98,0.00,,,0.01,Wunderground v.1.15,2013-01-18 23:31:00,
2013-01-18 15:36:00,33.7,33.2,30.32,NE,38,0.0,0.0,98,0.00,,,0.01,Wunderground v.1.15,2013-01-18 23:36:00,
2013-01-18 15:41:00,33.7,33.2,30.32,NE,37,0.0,0.0,98,0.00,,,0.01,Wunderground v.1.15,2013-01-18 23:41:00,
2013-01-18 15:47:00,33.7,33.2,30.32,NW,310,1.0,3.0,98,0.00,,,0.01,Wunderground v.1.15,2013-01-18 23:47:00,
2013-01-18 15:52:00,33.6,33.1,30.32,NW,310,1.0,1.0,98,0.00,,,0.01,Wunderground v.1.15,2013-01-18 23:52:00,
2013-01-18 15:57:00,33.6,33.1,30.32,NW,310,0.0,1.0,98,0.00,,,0.01,Wunderground v.1.15,2013-01-18 23:57:00,
2013-01-18 16:02:00,33.5,33.0,30.32,NW,310,0.0,0.0,98,0.00,,,0.01,Wunderground v.1.15,2013-01-19 00:02:00,
2013-01-18 16:07:00,33.5,33.0,30.33,NW,310,0.0,0.0,98,0.00,,,0.01,Wunderground v.1.15,2013-01-19 00:07:00,
2013-01-18 16:13:00,33.4,32.9,30.33,NW,310,0.0,0.0,98,0.00,,,0.01,Wunderground v.1.15,2013-01-19 00:13:00,
2013-01-18 16:18:00,33.4,32.9,30.33,NW,310,0.0,0.0,98,0.00,,,0.01,Wunderground v.1.15,2013-01-19 00:18:00,
2013-01-18 16:23:00,33.3,32.8,30.33,NW,310,0.0,0.0,98,0.00,,,0.01,Wunderground v.1.15,2013-01-19 00:23:00,
2013-01-18 16:29:00,33.2,32.7,30.33,NW,309,0.0,1.0,98,0.00,,,0.01,Wunderground v.1.15,2013-01-19 00:29:00,
2013-01-18 16:34:00,33.2,32.7,30.33,NW,309,0.0,0.0,98,0.00,,,0.01,Wunderground v.1.15,2013-01-19 00:34:00,
2013-01-18 16:39:00,33.2,32.7,30.32,NW,309,0.0,0.0,98,0.00,,,0.01,Wunderground v.1.15,2013-01-19 00:39:00,
2013-01-18 16:44:00,33.1,32.6,30.32,NW,305,0.0,0.0,98,0.00,,,0.01,Wunderground v.1.15,2013-01-19 00:44:00,
2013-01-18 16:50:00,33.1,32.6,30.33,NW,305,0.0,0.0,98,0.00,,,0.01,Wunderground v.1.15,2013-01-19 00:50:00,
2013-01-18 16:56:00,33.0,32.5,30.33,NW,305,0.0,1.0,98,0.00,,,0.01,Wunderground v.1.15,2013-01-19 00:56:00,
2013-01-18 17:01:00,32.9,32.4,30.32,WNW,296,1.0,1.0,98,0.00,,,0.01,Wunderground v.1.15,2013-01-19 01:01:00,
2013-01-18 17:06:00,32.9,32.4,30.33,West,264,1.0,2.0,98,0.00,,,0.01,Wunderground v.1.15,2013-01-19 01:06:00,
2013-01-18 17:11:00,32.8,32.3,30.33,West,264,0.0,1.0,98,0.00,,,0.01,Wunderground v.1.15,2013-01-19 01:11:00,
2013-01-18 17:17:00,32.7,32.2,30.33,West,264,0.0,1.0,98,0.00,,,0.01,Wunderground v.1.15,2013-01-19 01:17:00,
2013-01-18 17:22:00,32.6,32.1,30.33,West,264,0.0,0.0,98,0.00,,,0.01,Wunderground v.1.15,2013-01-19 01:22:00,
2013-01-18 17:27:00,32.5,32.0,30.33,West,264,0.0,0.0,98,0.00,,,0.01,Wunderground v.1.15,2013-01-19 01:27:00,
2013-01-18 17:33:00,32.4,31.9,30.33,South,189,0.0,2.0,98,0.00,,,0.01,Wunderground v.1.15,2013-01-19 01:33:00,
2013-01-18 17:38:00,32.3,31.8,30.33,South,184,0.0,2.0,98,0.00,,,0.01,Wunderground v.1.15,2013-01-19 01:38:00,
2013-01-18 17:44:00,32.3,31.8,30.33,South,184,0.0,0.0,98,0.00,,,0.01,Wunderground v.1.15,2013-01-19 01:44:00,
2013-01-18 17:49:00,32.2,31.7,30.33,South,184,0.0,2.0,98,0.00,,,0.01,Wunderground v.1.15,2013-01-19 01:49:00,
2013-01-18 17:54:00,32.2,31.7,30.33,South,184,0.0,1.0,98,0.00,,,0.01,Wunderground v.1.15,2013-01-19 01:54:00,
2013-01-18 18:00:00,32.1,31.6,30.33,South,185,0.0,2.0,98,0.00,,,0.01,Wunderground v.1.15,2013-01-19 02:00:00,
2013-01-18 18:06:00,32.1,31.6,30.33,South,185,1.0,2.0,98,0.00,,,0.01,Wunderground v.1.15,2013-01-19 02:06:00,
2013-01-18 18:11:00,32.1,31.6,30.33,South,185,0.0,0.0,98,0.00,,,0.01,Wunderground v.1.15,2013-01-19 02:11:00,
2013-01-18 18:16:00,32.0,31.5,30.33,South,185,0.0,0.0,98,0.00,,,0.01,Wunderground v.1.15,2013-01-19 02:16:00,
2013-01-18 18:21:00,31.9,31.4,30.33,South,185,0.0,0.0,98,0.00,,,0.01,Wunderground v.1.15,2013-01-19 02:21:00,
2013-01-18 18:27:00,31.9,31.4,30.33,South,185,0.0,1.0,98,0.00,,,0.01,Wunderground v.1.15,2013-01-19 02:27:00,
2013-01-18 18:32:00,31.9,31.4,30.33,South,185,0.0,0.0,98,0.00,,,0.01,Wunderground v.1.15,2013-01-19 02:32:00,
2013-01-18 18:37:00,31.8,31.3,30.33,South,185,0.0,1.0,98,0.00,,,0.01,Wunderground v.1.15,2013-01-19 02:37:00,
2013-01-18 18:42:00,31.8,31.3,30.33,South,185,0.0,0.0,98,0.00,,,0.01,Wunderground v.1.15,2013-01-19 02:42:00,
2013-01-18 18:48:00,31.8,31.3,30.33,South,185,0.0,0.0,98,0.00,,,0.01,Wunderground v.1.15,2013-01-19 02:48:00,
2013-01-18 18:53:00,31.8,31.3,30.34,South,185,0.0,0.0,98,0.00,,,0.01,Wunderground v.1.15,2013-01-19 02:53:00,
2013-01-18 18:59:00,31.8,31.3,30.33,South,185,0.0,0.0,98,0.00,,,0.01,Wunderground v.1.15,2013-01-19 02:59:00,
2013-01-18 19:04:00,31.8,31.3,30.33,South,185,0.0,0.0,98,0.00,,,0.01,Wunderground v.1.15,2013-01-19 03:04:00,
2013-01-18 19:09:00,31.8,31.3,30.33,South,185,0.0,0.0,98,0.00,,,0.01,Wunderground v.1.15,2013-01-19 03:09:00,
2013-01-18 19:16:00,31.8,31.3,30.33,South,185,0.0,0.0,98,0.00,,,0.01,Wunderground v.1.15,2013-01-19 03:16:00,
2013-01-18 19:21:00,31.8,31.3,30.33,South,185,0.0,0.0,98,0.00,,,0.01,Wunderground v.1.15,2013-01-19 03:21:00,
2013-01-18 19:26:00,31.8,31.3,30.33,South,185,0.0,0.0,98,0.00,,,0.01,Wunderground v.1.15,2013-01-19 03:26:00,
2013-01-18 19:31:00,31.8,31.3,30.33,South,185,0.0,0.0,98,0.00,,,0.01,Wunderground v.1.15,2013-01-19 03:31:00,
2013-01-18 19:36:00,31.8,31.3,30.33,South,185,0.0,3.0,98,0.00,,,0.01,Wunderground v.1.15,2013-01-19 03:36:00,
2013-01-18 19:42:00,31.9,31.4,30.33,South,185,0.0,0.0,98,0.00,,,0.01,Wunderground v.1.15,2013-01-19 03:42:00,
2013-01-18 19:47:00,31.9,31.4,30.33,South,185,0.0,0.0,98,0.00,,,0.01,Wunderground v.1.15,2013-01-19 03:47:00,
2013-01-18 19:52:00,31.8,31.3,30.33,South,185,0.0,0.0,98,0.00,,,0.01,Wunderground v.1.15,2013-01-19 03:52:00,
2013-01-18 19:58:00,31.8,31.3,30.34,South,185,0.0,0.0,98,0.00,,,0.01,Wunderground v.1.15,2013-01-19 03:58:00,
2013-01-18 20:03:00,31.8,31.3,30.34,South,185,0.0,0.0,98,0.00,,,0.01,Wunderground v.1.15,2013-01-19 04:03:00,
2013-01-18 20:09:00,31.8,31.3,30.34,South,185,0.0,0.0,98,0.00,,,0.01,Wunderground v.1.15,2013-01-19 04:09:00,
2013-01-18 20:14:00,31.8,31.3,30.34,South,185,0.0,2.0,98,0.00,,,0.01,Wunderground v.1.15,2013-01-19 04:14:00,
2013-01-18 20:19:00,31.9,31.4,30.34,South,185,0.0,2.0,98,0.00,,,0.01,Wunderground v.1.15,2013-01-19 04:19:00,
2013-01-18 20:24:00,31.9,31.4,30.34,South,185,0.0,0.0,98,0.00,,,0.01,Wunderground v.1.15,2013-01-19 04:24:00,
2013-01-18 20:30:00,31.9,31.4,30.34,South,185,0.0,0.0,98,0.00,,,0.01,Wunderground v.1.15,2013-01-19 04:30:00,
2013-01-18 20:36:00,31.9,31.4,30.34,South,185,0.0,0.0,98,0.00,,,0.01,Wunderground v.1.15,2013-01-19 04:36:00,
2013-01-18 20:41:00,31.9,31.4,30.34,South,185,0.0,0.0,98,0.00,,,0.01,Wunderground v.1.15,2013-01-19 04:41:00,
2013-01-18 20:46:00,31.9,31.4,30.34,South,185,0.0,2.0,98,0.00,,,0.01,Wunderground v.1.15,2013-01-19 04:46:00,
2013-01-18 20:52:00,31.9,31.4,30.35,South,185,0.0,0.0,98,0.00,,,0.01,Wunderground v.1.15,2013-01-19 04:52:00,
2013-01-18 20:57:00,32.0,31.5,30.35,South,185,0.0,0.0,98,0.00,,,0.01,Wunderground v.1.15,2013-01-19 04:57:00,
2013-01-18 21:02:00,32.0,31.5,30.35,South,185,0.0,0.0,98,0.00,,,0.01,Wunderground v.1.15,2013-01-19 05:02:00,
2013-01-18 21:04:00,32.0,31.5,30.35,South,186,0.0,3.0,98,0.00,,,0.01,Wunderground v.1.15,2013-01-19 05:04:00,
2013-01-18 21:09:00,31.9,31.4,30.35,South,186,0.0,3.0,98,0.00,,,0.01,Wunderground v.1.15,2013-01-19 05:09:00,
2013-01-18 21:11:00,32.0,31.5,30.35,South,186,0.0,0.0,98,0.00,,,0.01,Wunderground v.1.15,2013-01-19 05:11:00,
2013-01-18 21:16:00,32.0,31.5,30.36,South,186,0.0,0.0,98,0.00,,,0.01,Wunderground v.1.15,2013-01-19 05:16:00,
2013-01-18 21:21:00,31.9,31.4,30.36,South,186,0.0,1.0,98,0.00,,,0.01,Wunderground v.1.15,2013-01-19 05:21:00,
2013-01-18 21:27:00,31.9,31.4,30.36,South,186,0.0,2.0,98,0.00,,,0.01,Wunderground v.1.15,2013-01-19 05:27:00,
2013-01-18 21:32:00,31.9,31.4,30.36,South,186,1.0,1.0,98,0.00,,,0.01,Wunderground v.1.15,2013-01-19 05:32:00,
2013-01-18 21:38:00,31.9,31.4,30.36,South,186,0.0,1.0,98,0.00,,,0.01,Wunderground v.1.15,2013-01-19 05:38:00,
2013-01-18 21:43:00,31.9,31.4,30.36,South,186,0.0,0.0,98,0.00,,,0.01,Wunderground v.1.15,2013-01-19 05:43:00,
2013-01-18 21:48:00,31.9,31.4,30.36,South,186,0.0,0.0,98,0.00,,,0.01,Wunderground v.1.15,2013-01-19 05:48:00,
2013-01-18 21:55:00,31.9,31.4,30.36,South,186,0.0,0.0,98,0.00,,,0.01,Wunderground v.1.15,2013-01-19 05:55:00,
2013-01-18 22:01:00,31.9,31.4,30.36,SSE,148,0.0,2.0,98,0.00,,,0.01,Wunderground v.1.15,2013-01-19 06:01:00,
2013-01-18 22:06:00,31.9,31.4,30.36,SSE,148,1.0,2.0,98,0.00,,,0.01,Wunderground v.1.15,2013-01-19 06:06:00,
2013-01-18 22:12:00,31.7,31.2,30.36,SSE,148,1.0,1.0,98,0.00,,,0.01,Wunderground v.1.15,2013-01-19 06:12:00,
2013-01-18 22:17:00,31.7,31.2,30.36,SSE,148,0.0,1.0,98,0.00,,,0.01,Wunderground v.1.15,2013-01-19 06:17:00,
2013-01-18 22:22:00,31.6,31.1,30.36,East,82,0.0,1.0,98,0.00,,,0.01,Wunderground v.1.15,2013-01-19 06:22:00,
2013-01-18 22:27:00,31.6,31.1,30.36,East,80,1.0,2.0,98,0.00,,,0.01,Wunderground v.1.15,2013-01-19 06:27:00,
2013-01-18 22:33:00,31.5,31.0,30.36,East,80,1.0,1.0,98,0.00,,,0.01,Wunderground v.1.15,2013-01-19 06:33:00,
2013-01-18 22:39:00,31.5,31.0,30.36,East,80,0.0,1.0,98,0.00,,,0.01,Wunderground v.1.15,2013-01-19 06:39:00,
2013-01-18 22:44:00,31.5,31.0,30.36,East,82,0.0,4.0,98,0.00,,,0.01,Wunderground v.1.15,2013-01-19 06:44:00,
2013-01-18 22:49:00,31.4,30.9,30.36,East,82,2.0,4.0,98,0.00,,,0.01,Wunderground v.1.15,2013-01-19 06:49:00,
2013-01-18 22:55:00,31.2,30.7,30.36,East,82,1.0,2.0,98,0.00,,,0.01,Wunderground v.1.15,2013-01-19 06:55:00,
2013-01-18 23:00:00,31.1,30.6,30.36,East,82,0.0,2.0,98,0.00,,,0.01,Wunderground v.1.15,2013-01-19 07:00:00,
2013-01-18 23:06:00,31.1,30.6,30.36,ENE,76,0.0,0.0,98,0.00,,,0.01,Wunderground v.1.15,2013-01-19 07:06:00,
2013-01-18 23:12:00,31.1,30.6,30.36,ENE,76,0.0,0.0,98,0.00,,,0.01,Wunderground v.1.15,2013-01-19 07:12:00,
2013-01-18 23:17:00,31.0,30.5,30.36,ENE,64,1.0,2.0,98,0.00,,,0.01,Wunderground v.1.15,2013-01-19 07:17:00,
2013-01-18 23:22:00,31.0,30.5,30.36,ENE,64,1.0,1.0,98,0.00,,,0.01,Wunderground v.1.15,2013-01-19 07:22:00,
2013-01-18 23:27:00,31.0,30.5,30.36,ENE,64,1.0,1.0,98,0.00,,,0.01,Wunderground v.1.15,2013-01-19 07:27:00,
2013-01-18 23:33:00,30.9,30.4,30.36,ENE,64,0.0,1.0,98,0.00,,,0.01,Wunderground v.1.15,2013-01-19 07:33:00,
2013-01-18 23:38:00,30.8,30.3,30.36,ENE,64,0.0,1.0,98,0.00,,,0.01,Wunderground v.1.15,2013-01-19 07:38:00,
2013-01-18 23:43:00,30.8,30.3,30.36,ENE,64,0.0,0.0,98,0.00,,,0.01,Wunderground v.1.15,2013-01-19 07:43:00,
2013-01-18 23:49:00,30.6,30.1,30.36,ENE,64,0.0,2.0,98,0.00,,,0.01,Wunderground v.1.15,2013-01-19 07:49:00,
2013-01-18 23:54:00,30.5,30.0,30.36,ENE,64,0.0,0.0,98,0.00,,,0.01,Wunderground v.1.15,2013-01-19 07:54:00,